STARLINK-11209 [DTC] (61200 NORAD) Tracking and Keplerian Element Data

This shows tracking and keplerian element data for the satellite.

Feedback or suggestion? Click here.




ElementValue
Catalog61200
NameSTARLINK-11209 [DTC]
Epoch Orbit468
Epoch Day286.46407772
Epoch Year2024
RAAN187.5536
Inclination53.1564
Eccentricity8.86E-05
Argument of Perigee49.2708
Mean Anonmoly310.8389
Mean Motion15.76735009
Decay Rate0.00032104
L11 61200U 24171A 24286.46407772 .00032104 00000+0 19935-3 0 9992
L22 61200 53.1564 187.5536 0000886 49.2708 310.8389 15.76735009 4685



Live tracking and technical data element details for STARLINK-11209 [DTC] (NORAD 61200). STARLINK-11209 [DTC] can be tracked NOW for your location showing map with azimuth and elevation plus other details from your city location.







IsCatalogInMostPopularTable: catalog: 61200, numindb: 26
Update: records affected: 1



GetName: 61200 STARLINK-11209 [DTC]

Hit Count: updated at: Wed, 04 Dec 2024 13:02:34 GMT